ATLAS CENTAUR 2 1 00694U 63047A 26104.03413959 .00001899 00000+0 22243-3 0 9998 2 00694 30.3546 358.0971 0546726 31.8202 331.4262 14.12237735136625 THOR AGENA D R/B 1 00733U 64002A 26104.03666823 .00000109 00000+0 56193-4 0 9999 2 00733 99.1200 119.2987 0033398 154.0513 206.2354 14.34038757243360 SL-3 R/B 1 00877U 64053B 26104.07204277 .00000075 00000+0 38938-4 0 9998 2 00877 65.0769 227.4978 0080865 281.1231 78.0785 14.61393713271969 SL-8 R/B 1 02802U 67045B 26103.59096056 .00000206 00000+0 64824-4 0 9991 2 02802 74.0097 282.9053 0065164 281.6565 77.7284 14.45649102 94065 SL-8 R/B 1 03230U 68040B 26104.11168772 .00001974 00000+0 14700-3 0 9997 2 03230 74.0300 241.2953 0023530 50.4011 309.9250 15.03507263 95334 OAO 2 1 03597U 68110A 26104.03548571 .00000119 00000+0 37226-4 0 9990 2 03597 34.9935 67.8710 0005091 125.5681 234.5485 14.47327225 24229 ISIS 1 1 03669U 69009A 26104.11910021 .00000082 00000+0 49383-4 0 9996 2 03669 88.4471 151.4373 1707472 17.6834 347.6818 11.30422653352531 SERT 2 1 04327U 70009A 26104.10733593 .00000008 00000+0 67030-4 0 9993 2 04327 99.2802 45.2720 0005793 76.3375 294.2893 13.58734142784704 SL-3 R/B 1 05118U 71028B 26104.12923132 .00025896 00000+0 26824-3 0 9993 2 05118 81.2379 8.1580 0016231 148.8033 211.4189 15.64367025994208 ASTEX 1 1 05560U 71089A 26103.99831075 .00000224 00000+0 57157-4 0 9991 2 05560 92.7065 163.1667 0014248 333.0668 26.9797 14.50805051867421 SL-8 R/B 1 05730U 71119B 26103.71565675 .00004924 00000+0 25817-3 0 9992 2 05730 73.8837 110.2146 0545618 69.4248 296.4550 14.38478860660529 OAO 3 (COPERNICUS) 1 06153U 72065A 26104.01879007 .00000180 00000+0 41300-4 0 9990 2 06153 35.0050 96.0228 0006018 90.2290 307.3661 14.60025368851368 ATLAS CENTAUR R/B 1 06155U 72065B 26104.02940299 .00000753 00000+0 10553-3 0 9996 2 06155 35.0009 98.6289 0034015 306.9194 52.8393 14.77787014846490 SL-8 R/B 1 08459U 75112B 26103.83892524 .00000097 00000+0 40423-4 0 9997 2 08459 74.0604 314.2557 0014990 33.7728 326.4378 14.38223000636921 SL-3 R/B 1 10114U 77057B 26104.12338066 .00007178 00000+0 14643-3 0 9998 2 10114 97.5809 277.6411 0007880 148.2920 211.8805 15.46508131673807 SEASAT 1 1 10967U 78064A 26104.18860096 .00000145 00000+0 79007-4 0 9995 2 10967 108.0071 199.9811 0002796 267.4633 92.6193 14.46191526511641 SL-14 R/B 1 11267U 79011B 26104.12694367 .00000430 00000+0 39867-4 0 9999 2 11267 82.5234 62.9357 0014598 302.5271 57.4538 14.91956794534067 SL-8 R/B 1 11574U 79089B 26104.18789311 .00000147 00000+0 52310-4 0 9998 2 11574 74.0712 25.3308 0016118 192.2669 167.8098 14.42374523441221 SL-14 R/B 1 11672U 80005B 26103.76065668 .00000386 00000+0 36423-4 0 9994 2 11672 82.5112 273.9569 0016840 50.2340 310.0359 14.90972060481712 SL-8 R/B 1 12139U 81003B 26104.14780407 .00009984 00000+0 24766-3 0 9999 2 12139 82.9369 257.1938 0257634 55.4591 307.0666 15.12553505320034 SL-3 R/B 1 12465U 81046B 26104.14008095 .00007019 00000+0 15826-3 0 9998 2 12465 81.2295 247.1391 0018071 255.2164 104.7077 15.42889640443897 SL-3 R/B 1 12904U 81103B 26104.15182387 .00002265 00000+0 98480-4 0 9994 2 12904 81.1601 171.8287 0013687 162.7180 197.4520 15.21782082978625 SL-3 R/B 1 13068U 82013B 26103.88330322 .00002008 00000+0 85352-4 0 9999 2 13068 81.1712 119.5076 0023355 63.2696 297.0922 15.22322766409706 SL-3 R/B 1 13154U 82039B 26104.17084021 .00001043 00000+0 61731-4 0 9991 2 13154 81.1525 175.0413 0027922 204.6925 155.2966 15.10274423386997 SL-3 R/B 1 13403U 82079B 26104.16333750 .00002449 00000+0 95548-4 0 9991 2 13403 81.1461 151.1828 0025025 48.6881 311.6501 15.25237371383107 SL-14 R/B 1 13553U 82092B 26103.51472322 .00000295 00000+0 30297-4 0 9996 2 13553 82.5645 108.8154 0020252 181.1328 276.9079 14.86697912334105 SL-3 R/B 1 13819U 83010B 26104.14276194 .00007376 00000+0 14242-3 0 9999 2 13819 81.1023 318.7417 0015051 284.7665 75.1912 15.47500614363426 SL-3 R/B 1 14208U 83075B 26104.12617074 .00006179 00000+0 15949-3 0 9992 2 14208 97.6131 110.0692 0023242 102.3383 258.0466 15.39266526335609 COSMOS 1536 1 14699U 84013A 26103.91138856 .00004189 00000+0 16946-3 0 9998 2 14699 82.5430 72.8156 0015234 151.4119 208.7957 15.24326610277980 SL-14 R/B 1 14820U 84027B 26104.04486481 .00000302 00000+0 31678-4 0 9997 2 14820 82.5440 211.8567 0017159 212.2341 147.7829 14.86015228252888 SL-8 R/B 1 15483U 85006B 26104.20571198 .00000118 00000+0 47611-4 0 9998 2 15483 74.0464 195.7961 0017252 102.1930 282.2432 14.37807403159138 SL-12 R/B(2) 1 15772U 85042D 26104.15772560 .00000103 00000+0 67593-4 0 9994 2 15772 71.1105 12.7948 0033046 69.2415 40.1048 14.21992711119435 SL-14 R/B 1 15945U 85069B 26104.08615488 .00000273 00000+0 28014-4 0 9995 2 15945 82.5294 351.6587 0020344 76.3068 284.0412 14.86470397178099 SL-16 R/B 1 16182U 85097B 26104.15712882 .00000251 00000+0 14979-3 0 9994 2 16182 71.0026 65.8801 0008684 216.2547 232.6823 14.16605022 92258 SL-14 R/B 1 16496U 86006B 26104.05406978 .00000546 00000+0 54987-4 0 9999 2 16496 82.5279 226.4511 0077163 154.4832 206.0227 14.86877985154465 COSMOS 1743 1 16719U 86034A 26103.72752880 .00026979 00000+0 31124-3 0 9992 2 16719 82.5306 36.9726 0006829 131.3227 228.8619 15.61746480185717 SL-14 R/B 1 16792U 86046B 26104.10095990 .00000304 00000+0 32087-4 0 9995 2 16792 82.4832 46.7196 0024626 109.6383 250.7494 14.85626604131667 SL-14 R/B 1 16882U 86055B 26104.22047073 .00000283 00000+0 29788-4 0 9997 2 16882 82.5171 93.2656 0018020 210.4218 160.1223 14.85675402124645 AJISAI (EGS) 1 16908U 86061A 26104.21654058 -.00000092 00000+0 39052-4 0 9993 2 16908 50.0120 344.1048 0011394 18.3293 75.1239 12.44515778472422 SL-14 R/B 1 17567U 87024B 26104.12147443 .00000294 00000+0 30643-4 0 9990 2 17567 82.5280 59.4551 0019236 139.5516 220.7135 14.86167618 93395 COSMOS 1833 1 17589U 87027A 26103.68895209 -.00000311 00000+0 -14038-3 0 9998 2 17589 70.9162 252.4495 0022631 161.2812 198.9147 14.13039289 15266 SL-16 R/B 1 17590U 87027B 26103.98448106 -.00000237 00000+0 -93761-4 0 9991 2 17590 71.0036 202.1180 0003030 50.9809 309.1584 14.17169561 20342 SL-14 R/B 1 17912U 87038B 26103.73041455 .00000299 00000+0 31799-4 0 9999 2 17912 82.4987 263.7864 0020392 51.7674 308.5374 14.85402967 84437 COSMOS 1844 1 17973U 87041A 26104.04024713 -.00000078 00000+0 -15229-4 0 9990 2 17973 70.9004 319.6147 0032285 325.8134 34.0908 14.14564931 8589 SL-14 R/B 1 18153U 87055B 26104.03787028 .00000249 00000+0 25855-4 0 9994 2 18153 82.4979 315.7154 0019151 255.8197 104.0891 14.85662407 75186 COSMOS 1867 1 18187U 87060A 26104.00072926 -.00000050 00000+0 18774-4 0 9991 2 18187 65.0110 207.8137 0015168 280.5233 79.4142 14.31508664 24991 SL-14 R/B 1 18749U 88001B 26103.90096334 .00000256 00000+0 26706-4 0 9999 2 18749 82.5143 162.2523 0019467 119.7680 240.5476 14.85564298 47252 COSMOS 1933 1 18958U 88020A 26104.18445804 .00002788 00000+0 13435-3 0 9999 2 18958 82.5147 215.7867 0005452 82.7970 277.3883 15.18326298 55615 SL-3 R/B 1 19046U 88032B 26104.21318786 .00002798 00000+0 13079-3 0 9998 2 19046 97.5226 87.3598 0027581 108.9278 251.4950 15.20301205 57503 SL-16 R/B 1 19120U 88039B 26104.14110874 .00000076 00000+0 58758-4 0 9999 2 19120 71.0169 353.5876 0024013 284.0775 75.7681 14.19622536963415 COSMOS 1953 1 19210U 88050A 26104.03539992 .00003818 00000+0 13390-3 0 9995 2 19210 82.5052 122.6778 0010828 10.2846 349.8613 15.29076449 43187 SL-8 R/B 1 19257U 88053B 26103.82979369 .00000108 00000+0 43384-4 0 9997 2 19257 74.0484 47.6881 0021052 221.8639 168.3160 14.38937834981652 COSMOS 1975 1 19573U 88093A 26104.21146498 .00003152 00000+0 11204-3 0 9992 2 19573 82.5169 82.0034 0012918 52.7101 307.5314 15.28543872 24837 SL-14 R/B 1 19574U 88093B 26104.17331014 .00000256 00000+0 26688-4 0 9993 2 19574 82.5346 8.7430 0019119 281.8526 230.5600 14.85697056 6284 SL-16 R/B 1 19650U 88102B 26104.22230009 -.00000040 00000+0 37827-5 0 9997 2 19650 70.9987 76.7289 0015983 310.4718 49.5011 14.16160052931922 INTERCOSMOS 24 1 20261U 89080A 26104.23032916 .00000286 00000+0 81406-4 0 9993 2 20261 82.6023 81.2544 1187250 210.2702 142.4380 12.59596197671275 SL-14 R/B 1 20262U 89080C 26104.08276161 .00000227 00000+0 58330-4 0 9994 2 20262 82.5927 150.4746 1230963 103.8924 270.1910 12.50523923664575 DELTA 1 R/B 1 20323U 89089B 26104.14287286 .00000172 00000+0 51151-4 0 9991 2 20323 97.0677 305.9348 0069370 11.7830 348.4971 14.50691868900873 ARIANE 40 R/B 1 20443U 90005H 26104.11471536 .00000141 00000+0 58203-4 0 9995 2 20443 98.3014 163.7078 0011406 98.4699 261.7782 14.39894115897900 DELTA 2 R/B(1) 1 20453U 90008B 26103.86578329 .00038845 00000+0 38891-3 0 9990 2 20453 35.6028 303.1677 0076166 229.8690 129.5356 15.60788884931626 COSMOS 2058 1 20465U 90010A 26104.19845154 .00001529 00000+0 88178-4 0 9999 2 20465 82.4726 12.4437 0008908 204.0491 156.0324 15.11652033947608 SL-14 R/B 1 20466U 90010B 26103.82622484 .00000318 00000+0 35507-4 0 9991 2 20466 82.5023 234.3784 0019815 179.8664 180.2560 14.83604490933697 SL-14 R/B 1 20511U 90018B 26104.21526139 .00000222 00000+0 24865-4 0 9993 2 20511 82.5242 189.8950 0015587 340.0242 20.0360 14.82179147927840 HST 1 20580U 90037B 26103.84493882 .00004052 00000+0 12781-3 0 9994 2 20580 28.4729 160.0795 0002273 147.2593 212.8144 15.30041364778700 SL-16 R/B 1 20625U 90046B 26103.90165497 -.00000277 00000+0 -11838-3 0 9998 2 20625 70.9994 223.9576 0016534 253.8533 106.0770 14.15017530853371 COSMOS 2084 1 20663U 90055A 26104.05198493 .00001381 00000+0 10846-3 0 9992 2 20663 62.7901 214.9467 0011389 203.3709 156.6875 15.05863939941644 SL-6 R/B(2) 1 20666U 90055D 26104.14991345 .00000935 00000+0 81897-4 0 9991 2 20666 62.7806 133.2465 0030580 354.6796 5.3973 15.03757695943529 SL-8 R/B 1 20775U 90078B 26104.04298793 .00008455 00000+0 24947-3 0 9990 2 20775 82.9048 219.4888 0356652 254.5856 101.5709 14.90046571814560 SL-8 R/B 1 21088U 91006B 26104.13514117 .00000117 00000+0 10202-3 0 9997 2 21088 82.9415 143.6892 0021057 297.5333 81.8328 13.77500849768959 OKEAN-3 1 21397U 91039A 26103.58670735 .00001301 00000+0 89564-4 0 9997 2 21397 82.5145 303.0235 0013676 206.7601 153.2922 15.05009786870280 COSMOS 2151 1 21422U 91042A 26104.16783426 .00001101 00000+0 85711-4 0 9995 2 21422 82.4975 49.4455 0010916 304.8931 55.1266 15.00263342868513 SL-14 R/B 1 21423U 91042B 26104.20837637 .00000222 00000+0 24970-4 0 9998 2 21423 82.4957 186.8862 0018377 122.0284 238.2718 14.81864587858333 ERS-1 1 21574U 91050A 26104.07808491 .00000183 00000+0 73104-4 0 9994 2 21574 98.7848 123.1983 0033159 97.2240 263.2718 14.39476830820821 ARIANE 40 R/B 1 21610U 91050F 26104.11422502 .00000161 00000+0 60754-4 0 9998 2 21610 98.1942 155.0083 0002475 351.3039 8.8108 14.42919662824103 INTERCOSMOS 25 1 21819U 91086A 26103.98565485 .00000760 00000+0 14359-3 0 9994 2 21819 82.5993 288.6634 1485978 40.8736 329.4685 12.12113157500967 SL-8 R/B 1 21876U 92008B 26104.15767161 .00000018 00000+0 22321-5 0 9993 2 21876 82.9260 241.3900 0035340 37.5434 135.8447 13.75970179714297 SL-8 R/B 1 21938U 92020B 26104.03688758 -.00000024 00000+0 -40380-4 0 9990 2 21938 82.9277 127.5114 0028633 196.3920 192.1665 13.75549994705999 USA 81 1 21949U 92023A 26104.07652340 .00000142 00000+0 45153-4 0 9999 2 21949 85.0033 111.0144 0001260 82.4953 277.6382 14.32379700 99850 COSMOS 2219 1 22219U 92076A 26104.03153485 .00000103 00000+0 78479-4 0 9994 2 22219 71.0588 304.1901 0017389 151.9351 208.2713 14.14088649723378 SL-16 R/B 1 22220U 92076B 26104.05953440 .00000241 00000+0 14421-3 0 9996 2 22220 70.9977 113.8692 0011437 32.4074 350.8031 14.16865732726845 COSMOS 2221 1 22236U 92080A 26103.67952645 .00001354 00000+0 11705-3 0 9999 2 22236 82.5026 245.5543 0015625 76.9778 283.3187 14.96355975786020 SL-16 R/B 1 22285U 92093B 26104.00380332 -.00000157 00000+0 -56131-4 0 9998 2 22285 71.0201 290.1323 0006477 258.4229 101.6167 14.15453741718157 COSMOS 2228 1 22286U 92094A 26104.20697690 .00001344 00000+0 11307-3 0 9992 2 22286 82.5205 203.3070 0018093 178.0072 182.1226 14.97377477781379 SL-16 R/B 1 22566U 93016B 26104.04778534 .00000051 00000+0 50525-4 0 9997 2 22566 71.0063 140.9226 0012658 269.6953 90.2719 14.15313861707179 COSMOS 2242 1 22626U 93024A 26104.07099837 .00001320 00000+0 11299-3 0 9992 2 22626 82.5189 232.8665 0016274 181.5870 178.5304 14.96710735785680 SL-16 R/B 1 22803U 93059B 26103.97919669 .00000051 00000+0 48968-4 0 9993 2 22803 70.9896 296.7085 0016432 163.7375 196.4279 14.17239196684538 ARIANE 40 R/B 1 22830U 93061H 26104.17226080 .00000116 00000+0 58098-4 0 9994 2 22830 98.4856 172.3484 0010968 173.0296 187.1042 14.32880052699187 COSMOS 2278 1 23087U 94023A 26103.95955289 .00000322 00000+0 19294-3 0 9996 2 23087 71.0506 101.3056 0009732 323.3019 36.7436 14.14378981649799 SL-16 R/B 1 23088U 94023B 26104.13146106 -.00000219 00000+0 -88680-4 0 9991 2 23088 71.0025 356.4578 0005612 255.1957 104.8544 14.15019300651107 SL-16 R/B 1 23343U 94074B 26104.09984333 .00000255 00000+0 40727-4 0 9996 2 23343 97.7055 133.4749 0008074 103.6059 322.5814 14.79448022692489 SL-16 R/B 1 23405U 94077B 26104.16993563 .00000100 00000+0 75369-4 0 9990 2 23405 70.9811 277.8436 0001122 163.3499 196.7661 14.15566760621253 ARIANE 40+ R/B 1 23561U 95021B 26104.18184505 .00000155 00000+0 63145-4 0 9992 2 23561 98.4442 175.1730 0007428 44.6996 335.4456 14.39797923624357 SL-16 R/B 1 23705U 95058B 26103.75465713 .00000319 00000+0 18734-3 0 9992 2 23705 71.0189 106.6369 0010587 61.4557 298.7630 14.15501863572817 SL-16 R/B 1 24298U 96051B 26104.22237252 .00000050 00000+0 53859-4 0 9992 2 24298 70.7581 100.0293 0012672 87.8841 272.3730 14.12425119526663 ORBVIEW 2 (SEASTAR) 1 24883U 97037A 26104.17472044 .00000157 00000+0 70701-4 0 9994 2 24883 98.8626 269.4381 0001539 343.2503 16.8630 14.35519816513564 SL-16 R/B 1 25400U 98043G 26104.16398301 .00000021 00000+0 27787-4 0 9996 2 25400 98.8311 57.7922 0008745 272.3274 87.6904 14.26058018444041 SL-16 R/B 1 25407U 98045B 26104.03088087 .00000153 00000+0 10159-3 0 9998 2 25407 71.0090 107.2524 0008821 318.0487 41.9959 14.16198437432109 ISS (ZARYA) 1 25544U 98067A 26104.13467087 .00005375 00000+0 10597-3 0 9993 2 25544 51.6322 257.0967 0006556 310.1862 49.8552 15.48905907561823 CZ-4B R/B 1 25732U 99025C 26104.14205006 .00000025 00000+0 32768-4 0 9991 2 25732 98.6557 147.5718 0036112 242.0387 132.3618 14.18272346393190 OKEAN-O 1 25860U 99039A 26104.13780406 .00000349 00000+0 52532-4 0 9999 2 25860 97.9373 163.6560 0001164 114.6005 245.5328 14.80391391439630 SL-16 R/B 1 25861U 99039B 26104.15194271 .00000304 00000+0 45243-4 0 9993 2 25861 97.9896 163.1822 0015736 138.6475 221.5932 14.81780172442116 DELTA 2 R/B 1 25876U 99041E 26104.11954087 .00000456 00000+0 11360-3 0 9997 2 25876 51.7598 159.7426 0502556 92.9067 272.9470 14.11915717368033 HELIOS 1B 1 25977U 99064A 26104.15758336 .00000885 00000+0 10322-3 0 9990 2 25977 98.1660 7.4383 0000891 37.5499 322.5778 14.87834759690535 TERRA 1 25994U 99068A 26104.18803956 .00000233 00000+0 56403-4 0 9993 2 25994 97.9521 156.2534 0003598 79.8342 326.8783 14.61052398400266 SL-16 R/B 1 26070U 00006B 26104.19678924 -.00000258 00000+0 -10667-3 0 9999 2 26070 71.0046 23.1760 0014767 133.2330 227.0028 14.15829579353580 TITAN 4B R/B 1 26474U 00047B 26104.14068985 .00001715 00000+0 11215-3 0 9994 2 26474 67.9869 300.8002 0041272 354.4362 5.6322 15.09861990398260 ENVISAT 1 27386U 02009A 26104.13263507 .00000047 00000+0 29143-4 0 9990 2 27386 98.3782 56.8992 0001160 83.9625 287.1553 14.39049296264274 IDEFIX & ARIANE 42P R/B 1 27422U 02021B 26104.08480124 .00000139 00000+0 69228-4 0 9995 2 27422 98.5908 42.2770 0012998 83.5610 276.7053 14.31050342249088 AQUA 1 27424U 02022A 26104.20384441 .00000521 00000+0 11371-3 0 9997 2 27424 98.4230 72.2322 0001756 108.0100 310.2198 14.62057811273926 CZ-4B R/B 1 27432U 02024C 26104.15676269 .00000005 00000+0 25968-4 0 9999 2 27432 98.8766 157.3723 0049053 282.4971 140.7183 14.14553996234253 MIDORI II (ADEOS-II) 1 27597U 02056A 26104.15575899 .00000169 00000+0 84188-4 0 9993 2 27597 98.7827 62.8925 0000213 133.2772 226.8428 14.29312428215361 H-2A R/B 1 27601U 02056E 26103.94557250 .00000210 00000+0 88010-4 0 9991 2 27601 98.3260 62.9825 0071288 57.1034 344.1774 14.33786481219168 CZ-4B R/B 1 28059U 03049C 26103.72985654 .00000230 00000+0 64246-4 0 9998 2 28059 98.6899 100.0170 0049129 124.0154 236.5722 14.55051881191697 CZ-2C R/B 1 28222U 04012C 26104.18399874 .00042794 00000+0 36902-3 0 9993 2 28222 97.7155 172.9482 0013945 175.0176 185.1226 15.69031673209832 SL-16 R/B 1 28353U 04021B 26104.09613850 .00000058 00000+0 54739-4 0 9997 2 28353 71.0006 158.1926 0006188 323.9794 36.0910 14.14605380127842 CZ-4B R/B 1 28415U 04035C 26104.04412765 .00004235 00000+0 14786-3 0 9996 2 28415 97.3444 137.8668 0031130 199.9004 160.1025 15.29680731185317 CZ-2C R/B 1 28480U 04046B 26104.17548773 .00000095 00000+0 50322-4 0 9990 2 28480 98.1973 16.9477 0140429 50.2764 311.0697 14.27006487113561 ARIANE 5 R/B 1 28499U 04049H 26104.20246506 .00000539 00000+0 66156-4 0 9991 2 28499 98.2676 274.0018 0083012 235.4855 123.8501 14.85335520151069 CZ-2D R/B 1 28738U 05024B 26104.01205875 .00028394 00000+0 30779-3 0 9994 2 28738 97.3558 120.5378 0002852 211.2897 148.8192 15.63505151145296 ALOS (DAICHI) 1 28931U 06002A 26104.10576657 .00000708 00000+0 12664-3 0 9997 2 28931 98.1273 59.8999 0001542 113.4597 246.6771 14.69917880 78681 H-2A R/B 1 28932U 06002B 26103.37479854 .00005673 00000+0 27935-3 0 9990 2 28932 98.2472 253.4166 0052570 123.2906 237.3377 15.17217503 99694 RESURS-DK 1 1 29228U 06021A 26103.51247089 .00001184 00000+0 73127-4 0 9997 2 29228 69.9300 146.9354 0002389 10.6093 349.5123 15.12944562 92798 CZ-4B R/B 1 29507U 06046C 26104.09450353 .00002483 00000+0 12638-3 0 9990 2 29507 97.5527 148.9030 0034102 142.8081 217.5524 15.17268771 65416 CZ-2C R/B 1 31114U 07010B 26104.23281597 .00000065 00000+0 48868-4 0 9996 2 31114 98.4019 215.7368 0058886 189.7397 170.2643 14.20259558984762 COSMO-SKYMED 1 1 31598U 07023A 26103.96460412 .00001516 00000+0 13767-3 0 9991 2 31598 97.8881 295.2869 0001483 86.4576 273.6815 14.96796351 20186 COSMOS 2428 1 31792U 07029A 26104.14458336 -.00000119 00000+0 -38224-4 0 9992 2 31792 70.9401 128.9279 0009545 239.3817 120.6363 14.12948308969105 SL-16 R/B 1 31793U 07029B 26103.72368412 -.00000178 00000+0 -67296-4 0 9997 2 31793 70.9727 98.7395 0002795 272.9842 259.7671 14.14841651970328 KORONAS-FOTON 1 33504U 09003A 26104.08943926 .00008367 00000+0 18041-3 0 9991 2 33504 82.4290 239.0440 0010843 33.4099 326.7831 15.44329412951200 CZ-2C R/B 1 37731U 11030B 26103.62402993 .00000649 00000+0 88238-4 0 9994 2 37731 97.8600 60.2051 0051157 235.8250 297.7664 14.81337202795262 H-2A R/B 1 38341U 12025E 26103.86019785 .00002015 00000+0 18530-3 0 9992 2 38341 98.4785 73.7425 0043849 195.7960 164.1894 14.95398840753475 SHIJIAN-16 (SJ-16) 1 39358U 13057A 26104.22508931 .00000395 00000+0 41364-4 0 9995 2 39358 74.9706 117.8118 0015696 20.8725 339.3101 14.92456849676800 SL-4 R/B 1 39679U 14021B 26104.19384242 .00006886 00000+0 15310-3 0 9998 2 39679 51.6060 163.9064 0093331 232.7119 126.5330 15.40445685661743 ALOS-2 1 39766U 14029A 26104.22608308 .00000132 00000+0 24504-4 0 9993 2 39766 97.9191 202.3064 0001798 92.7384 267.4034 14.79476103642127 YAOGAN-29 1 41038U 15069A 26104.21688640 -.00000314 00000+0 -31972-4 0 9990 2 41038 98.0097 132.7339 0000844 161.1508 198.9737 14.83031377561145 ASTRO-H (HITOMI) 1 41337U 16012A 26104.19459178 .00001710 00000+0 96282-4 0 9994 2 41337 30.9979 127.3825 0009574 328.1988 31.8071 15.10224098557604 HXMT (HUIYAN) 1 42758U 17034A 26104.25072324 .00002681 00000+0 14006-3 0 9999 2 42758 43.0133 178.8963 0030351 99.9540 260.4736 15.17923410487945 SAOCOM 1A 1 43641U 18076A 26104.20352389 .00000094 00000+0 18414-4 0 9999 2 43641 97.8906 291.8752 0001401 90.1111 270.0262 14.82145014406629 H-2A R/B 1 43682U 18084L 26103.57696403 .00010356 00000+0 23650-3 0 9999 2 43682 98.8684 328.4561 0023073 261.2742 98.5887 15.42856850411157 SAOCOM 1B 1 46265U 20059A 26104.23478852 .00000128 00000+0 22685-4 0 9998 2 46265 97.8895 291.0009 0001488 83.1280 277.0103 14.82159182304014 CSS (TIANHE) 1 48274U 21035A 26104.14683641 .00015982 00000+0 17868-3 0 9999 2 48274 41.4686 352.1325 0005452 204.5875 155.4705 15.62370155283155 COSMOS 2550 1 48865U 21056A 26104.18587058 -.00000180 00000+0 36684-6 0 9992 2 48865 67.1432 293.5083 0008375 268.8034 91.2161 15.33831095268903 CZ-2C R/B 1 52794U 22058K 26103.45737400 .00023264 00000+0 31098-3 0 9996 2 52794 50.1867 139.0827 0040489 349.7900 10.2245 15.56916550215547 CZ-2C R/B 1 54039U 22132E 26103.76375829 .00028752 00000+0 28933-3 0 9991 2 54039 97.2949 108.2361 0013848 326.4759 33.5623 15.65274740195855 GSLV R/B 1 54149U 22138AN 26104.15150377 .00001590 00000+0 13506-3 0 9993 2 54149 87.3835 154.4848 0022482 29.2891 330.9596 14.96987730189234 XRISM 1 57800U 23137A 26103.89956056 .00003065 00000+0 16905-3 0 9993 2 57800 31.0024 55.8483 0007545 32.9948 327.1160 15.11906688143127 ACS3 1 59588U 24077B 26103.75827948 -.00002375 00000+0 -18229-2 0 9999 2 59588 97.1895 36.9913 0071869 2.1825 357.9640 13.91285373 99077 HTV-X1 1 66174U 25241A 26103.60300693 .00003702 00000+0 12725-3 0 9998 2 66174 51.6352 264.7214 0007460 308.5367 51.4945 15.32634450 26293 SZ-21 MODULE 1 66515U 25246C 26103.67814441 .00025378 00000+0 19523-3 0 9996 2 66515 41.4754 347.5224 0004429 266.9683 93.0653 15.71400343 23577